Погода в Игарке

Погода в Игарке : погода сейчас, прогноз погоды и архив. Всё, что Вы хотите узнать о погоде в Игарке!

Поиск расширенной информации на нашем сайте:

Другие новости

Новости СМИ2

Главная страница сайта

Новости сайта

03.07.2017

Напоминаем, что на нашем специализированном сайте Метеоцентр.Азия вы можете получить высокодетализированные автоматические прогнозы погоды по пунктам России, СНГ и мира в авиационном формате (включающие направление и скорость ветра, видимость, явления погоды, количество и форму облачности, нижнюю и верхнюю границу облачности).

Рекомендуем: Доставка канапе и фуршетных блюд по Москве catering.su.

Погода в Игарке - сегодня

Время (UTC), дата Ветер
(°,м/с) 
Видим.   Явления Облачность Т
(°С)
Тd
(°С)
f(%) Тe
(°С)
Pmin
(гПа)
dP
(гПа)
Po
(мм)
O2
(г/м3)
Тmin Tmax R s Состояние
почвы
18 16.09.17 тихо ()   10 км    9/5 870 м средняя 
[Sc|Ac As]
+3.8 +2.8 93 +4  1012.8  0.1  757  300           
21 16.09.17 300 (СЗ) 10 км    9/9 400 м 
[St]
+4 +3 93 +5  1012.8  757  300           
00 17.09.17 310 (СЗ) 20000 м    9/6 840 м средняя, верхняя 
[Sc|Ac As|Ci fib]
+3.8 +3.2 96 +5  1012.6  -0.2  757  300  +3.5         
03 17.09.17 тихо ()   20000 м    9/9 120 м 
[St]
+4.9 +4.2 95 +5  1012.7  0.1  757  299           
06 17.09.17 160 (Ю) 20000 м    9/9 480 м 
[Sc]
+6.1 +5 93 +5  1012.6  -0.1  757  297           
09 17.09.17 180 (Ю) 20000 м    9/9 450 м 
[Sc]
+6.3 +3.5 82 +5  1012.7  0.1  757  298           
12 17.09.17 140 (ЮВ) 20000 м    9/9 700 м 
[Sc]
+5 +2 81 +4  1012.3  -0.4  757  299    +6.6       
15 17.09.17 110 (В) 10 км    9/9 800 м 
[Sc]
+4.4 +1.9 84 +3  1011.7  -0.6  756  300           
18 17.09.17 110 (В) 10 км    4/4 1000 м 
[Sc]
+4 +1.7 85 +3  1011.3  -0.4  756  300           
21 17.09.17 090 (В) 10 км    1/1 1500 м 
[Sc]
+2.4 +0.8 89 +1  1009.8  -1.5  755  301           
00 18.09.17 100 (В) 20000 м    6/3 2000 м средняя, верхняя 
[Ac trans|Ci fib]
+3 +1.2 88 +2  1009.5  -0.3  755  301  +1.8         
03 18.09.17 100 (В) 20000 м    9/4 1000 м средняя 
[Sc|Ac trans]
+5.3 +1.5 76 +3  1009.5  755  298           
06 18.09.17 110 (В) 5{10}  20000 м    9/3 1000 м средняя 
[Sc|Ac trans]
+8.1 +1.8 64 +7  1009.3  -0.1  754  295           
12 18.09.17 100 (В) 4{11}  20000 м    9/3 1000 м средняя 
[Sc|Ac As]
+7.1 +0.8 64 +6  1010.3  0.9  755  296    +9.3       
18 18.09.17 060 (СВ) 10 км  {дождь}  9/6 1200 м средняя 
[Sc|As op]
+4.7 +0.6 75 +3  1011.8  0.5  756  299           
21 18.09.17 070 (В) 10 км    8/1 1000 м средняя 
[Sc|Ac trans]
+3.9 +0.5 78 +3  1012.6  0.8  757  301           
00 19.09.17 090 (В) 20000 м    4/0 средняя, верхняя 
[Ac trans|Ci fib]
+3.6 +0.2 78 +2  1013.8  1.2  758  301  +2.8    0.0     
03 19.09.17 100 (В) 20000 м    3/1 1000 м верхняя 
[Sc|Ci fib]
+8 +0.5 59 +7  1015  1.3  759  297           
06 19.09.17 090 (В) 20000 м    9/3 1000 м средняя 
[Sc|Ac trans]
+9.1 -0.2 52 +9  1015.9  0.9  759  296           
09 19.09.17 100 (В) 20000 м    4/3 1000 м средняя 
[Sc|Ac trans]
+10.5 -1.9 42 +10  1016.5  0.6  760  295           
12 19.09.17 060 (СВ) 20000 м    3/3 1000 м 
[Sc]
+8.5 -2.1 47 +9  1017.6  1.1  761  297    +11.4       
15 19.09.17 020 (С) 10 км    1/0 средняя 
[As trans]
+2.6 -2.3 70 +3  1018.9  1.2  762  304           
18 19.09.17 020 (С) 10 км    ясно 
+0.8 -1.8 83 1019.5  0.5  762  306           
21 19.09.17 030 (СВ) 10 км    ясно 
-0.2 -1.7 90 -1  1019.7  0.2  762  308           
00 20.09.17 350 (С) 20000 м    ясно 
-2.2 -3.1 94 -2  1020  0.3  762  310  -2.2         
Время (UTC), дата Ветер
(°,м/с) 
Видим.   Явления Облачность Т
(°С)
Тd
(°С)
f(%) Тe
(°С)
Pmin
(гПа)
dP
(гПа)
Po
(мм)
O2
(г/м3)
Тmin Tmax R s Состояние
почвы

Для получения пояснительной информации подведите курсор к названию столбца.

ПОГОДА в Игарке - архив

Всё, что Вы хотите узнать о погоде в Игарке - удобно и подробно!

Выберите нужную дату (начиная с 1 января 2015* года) и нажмите кнопку "Найти".
Будут отображены архивные сводки погоды по пункту Игарка, начиная с указанной даты.


Отображать данные в формате CSV (для использования в таблицах Excel)


Внимание! Наш архив погоды предназначен исключительно для личного некоммерческого использования в познавательных целях. Если Вам необходимы официальные справки о состоянии погоды (для производственных, юридических, коммерческих и т.п. целей), обращайтесь в органы Росгидромета.

*Примечание: данная дата относится к архиву по метеостанциям СССР (Россия, СНГ, Балтия).
Архив по метеостанциям Зарубежной Европы и Азии (кроме Китая) хранится 10 дней, по другим регионам земного шара (Китай, Африка, Америка, Австралия, Океания) - 1 день.

Игарка - район местоположения метеостанции


Название, широта, долгота, высота метеостанции:
Игарка 67.5°ш. 86.4°д. 25 м над ур. моря [Российская Федерация]

Дополнительная информация

В oтличие oт бoльшинства пoгoдных сайтoв мы публикуем пoдрoбную метеoинфoрмацию в детальнoм прoфессиoнальнoм фoрмате.

Характеристики температуры и влажнoсти вoздуха измеряются на высoте 2 м в тени вдали oт зданий и деревьев.
Скoрoсть ветра измеряется на высoте 10 м (на урoвне рoста челoвека скoрoсть ветра ниже в 1.5-2 раза). Если метеoстанция нахoдится в гoрoде или в лесу, тo скoрoсть ветра занижена на 2-4 м/с пo сравнению с oткрытым местoм. Скoрoсть ветра над акватoриями крупных рек и oзёр, а также на вершинах хoлмoв на 2-5 м/с выше, чем в oбычных услoвиях.
Атмoсфернoе давление в разных тoчках местнoсти мoжет значительнo oтличаться oт давления на метеoстанции, в зависимoсти oт услoвий рельефа (при пoдъёме на 10 м давление пoнижается примернo на 1 мм рт.ст.).